GFSNGP_sfc_rhum_270.txt.gz
RH
43 30 35 39 36 44 50 47 48 46 50 55 51 48 44 40 41 43 47 50 50 49 51 56 58 57 57 63 65 65 69 73 81 83 81 82 83 84 86 86 85 85 79 77
49 40 39 38 34 37 37 47 48 46 52 45 43 44 43 41 43 44 47 48 47 46 48 52 51 54 57 63 67 69 73 77 80 78 79 82 84 86 87 89 89 86 84 82
49 51 46 62 46 34 38 42 41 51 43 49 48 45 44 44 41 42 45 46 46 44 46 47 49 53 61 64 70 72 75 77 80 79 81 84 83 86 90 93 94 89 87 86
75 53 68 37 28 26 30 27 34 40 44 45 42 40 39 39 40 41 43 45 44 43 45 48 54 58 67 66 71 74 77 80 80 80 82 83 86 89 92 94 96 93 89 87
79 60 46 42 35 36 39 31 33 37 46 44 39 46 54 39 37 39 42 45 44 43 48 52 52 62 63 70 72 73 79 82 80 81 83 85 89 92 94 95 96 94 88 86
92 71 69 41 36 34 34 44 28 32 40 48 47 60 55 43 38 41 43 45 49 49 49 50 59 61 64 71 73 75 81 82 80 83 84 88 91 93 94 95 95 92 90 87
70 81 65 45 33 34 43 37 30 33 37 46 48 42 38 44 44 45 48 49 49 48 48 49 61 60 67 72 72 76 80 79 81 82 88 89 92 94 95 94 91 91 91 91
78 75 64 44 42 38 32 32 31 42 40 43 38 53 51 45 47 50 50 51 45 46 50 57 60 59 68 69 76 79 79 80 84 84 77 83 91 94 94 94 92 94 91 90
57 54 48 54 41 35 36 35 41 45 43 41 55 56 48 48 51 49 48 45 43 45 54 61 59 59 66 75 76 80 81 84 88 87 86 87 91 93 94 96 95 95 96 94
66 51 47 42 43 48 40 40 38 41 48 45 55 54 49 53 52 50 46 44 42 48 54 64 62 61 63 72 76 77 83 89 89 86 86 86 89 92 94 97 96 93 96 96
87 68 51 49 44 44 46 44 39 39 48 47 54 51 53 53 50 46 43 43 44 46 53 62 63 68 68 72 76 79 84 89 88 87 88 87 89 94 92 93 93 96 98 98
85 60 66 61 42 45 47 47 45 43 51 51 50 54 51 52 48 44 44 44 44 48 54 63 65 70 73 72 73 79 85 88 90 92 93 90 92 90 83 84 83 80 79 83
53 48 57 60 53 43 42 44 50 47 46 56 52 51 50 51 46 47 44 44 47 51 56 62 68 71 73 76 78 81 85 85 91 92 92 94 96 93 96 88 79 77 76 75
39 41 53 61 56 35 53 54 60 52 50 51 52 50 51 48 47 44 44 43 46 53 61 65 69 75 77 81 79 85 87 91 92 96 95 95 97 96 95 96 96 95 83 72
52 44 44 44 47 49 62 66 62 58 56 57 52 53 52 48 46 44 42 45 50 57 64 70 74 83 84 83 82 85 86 94 96 95 95 95 93 92 91 92 91 94 87 85
42 39 39 54 59 50 65 63 59 62 61 61 58 57 49 43 44 45 46 53 61 67 70 73 75 82 85 84 85 87 89 94 93 94 94 93 91 94 91 92 92 94 92 91
46 55 70 69 64 56 60 57 57 61 64 63 61 53 47 47 47 50 52 54 55 66 71 73 78 82 85 84 84 89 96 95 93 94 92 91 93 95 92 94 96 95 98 91
55 61 64 62 61 62 71 65 63 61 65 63 60 53 53 54 55 58 61 63 70 75 74 74 81 83 85 86 87 92 94 93 92 92 92 94 95 91 93 96 93 95 95 94
62 59 59 59 56 62 64 67 64 64 68 66 61 62 60 61 59 64 69 73 77 81 89 84 85 85 88 87 89 93 94 93 93 93 92 96 97 94 97 97 97 96 96 96
53 49 58 58 60 62 66 65 67 69 72 65 66 68 71 71 70 75 70 71 69 69 86 85 83 86 90 91 91 93 93 93 92 94 96 96 96 98 98 99 97 97 98 97
54 62 64 69 70 67 67 69 69 74 71 69 69 69 70 74 74 72 73 74 90 85 80 86 84 90 90 92 91 93 93 94 94 94 95 96 96 97 98 98 98 98 99 98
62 70 78 78 74 73 73 68 65 71 69 72 69 71 76 77 76 71 70 68 92 83 86 84 88 88 89 91 92 93 93 92 94 95 96 96 96 98 99 99 99 100 99 100
63 72 80 82 71 70 73 66 71 69 72 72 74 74 69 72 70 71 78 87 86 83 81 86 89 91 93 89 92 92 92 92 93 94 94 94 95 96 98 99 100 98 100 99
72 75 79 77 75 73 73 72 69 67 69 68 69 71 68 77 85 92 83 85 85 85 85 91 92 92 87 93 93 93 92 92 94 94 94 95 96 97 97 97 99 100 100 98
77 80 77 77 75 71 68 72 70 73 73 72 74 70 67 64 67 86 86 84 86 81 90 92 91 90 89 93 93 93 93 93 94 94 94 95 96 97 97 97 97 98 99 98
74 73 70 65 69 72 75 70 79 80 77 84 83 82 88 86 82 83 82 84 82 86 90 93 91 88 92 91 92 93 93 93 94 94 94 95 96 96 96 97 98 97 97 99
78 80 81 85 80 78 78 80 84 85 80 79 81 85 84 88 84 84 85 86 87 88 92 91 90 87 91 92 93 93 94 94 94 94 95 96 95 96 96 96 96 97 98 99

GFSNGP_sfc_rhum_273.txt.gz
RH
33 24 28 32 27 39 38 36 45 32 31 39 53 50 49 48 48 47 45 46 47 48 46 45 44 44 43 49 47 47 49 52 59 60 59 62 64 64 66 65 62 59 61 62
48 34 30 30 28 31 29 25 31 28 30 32 41 44 46 47 46 45 45 45 45 45 44 44 43 43 47 50 50 50 53 57 56 58 58 64 66 67 68 66 63 63 62 65
59 42 42 58 39 28 31 26 28 40 28 38 44 46 47 46 44 44 43 44 45 43 43 43 43 46 49 50 52 53 56 58 56 58 60 64 62 63 67 69 66 66 64 64
78 46 72 35 23 23 25 23 30 28 26 34 33 41 40 38 41 42 40 43 42 40 42 42 44 44 50 50 53 57 57 56 55 58 60 61 62 64 68 64 66 66 65 64
94 57 40 32 31 32 31 28 24 27 29 31 30 38 42 36 36 39 40 43 43 41 44 45 46 50 50 52 52 54 58 56 54 58 59 60 62 65 64 62 60 63 64 64
95 92 69 38 28 29 28 38 24 26 31 33 41 51 40 42 39 40 41 44 47 45 46 46 48 50 53 52 54 54 58 56 55 59 59 62 62 62 63 59 56 54 56 62
80 92 68 37 28 29 40 36 30 29 30 36 43 30 34 44 43 41 44 46 44 46 47 45 49 50 53 55 54 55 58 55 57 57 62 63 64 63 59 56 57 60 56 58
70 88 87 36 36 36 34 39 31 38 36 43 40 40 42 44 42 42 44 44 42 44 45 49 50 48 52 52 52 56 54 56 59 61 56 58 62 64 61 57 59 62 60 64
68 55 46 42 42 35 35 34 30 39 37 40 43 44 46 45 42 43 42 42 38 40 47 50 47 45 51 52 54 56 55 56 59 60 58 57 56 58 60 58 61 61 63 69
84 55 55 53 47 44 49 44 31 31 35 43 48 51 50 45 44 44 41 40 36 42 48 50 46 45 47 54 56 55 56 58 58 56 58 58 55 55 59 62 64 62 67 70
62 52 49 44 45 39 43 52 48 38 36 41 45 49 44 45 45 42 41 38 38 43 45 48 46 45 50 55 54 55 57 58 56 57 57 58 58 59 60 62 64 69 74 72
68 46 51 45 37 36 50 47 40 45 40 42 44 46 44 46 44 43 42 40 40 41 43 47 46 49 50 53 53 57 59 58 58 60 60 58 63 70 85 81 79 79 78 70
42 36 38 41 39 40 40 44 50 44 41 38 45 43 45 47 46 48 41 41 40 42 45 46 48 52 54 58 60 61 57 57 62 65 63 66 64 67 77 80 79 76 73 70
38 40 48 43 47 34 32 39 40 39 45 39 42 42 47 46 45 42 41 39 39 42 47 46 50 56 57 61 57 57 57 74 60 64 66 71 63 68 68 68 69 70 68 62
46 39 34 34 36 37 42 39 39 38 48 46 46 49 49 47 47 43 40 39 41 44 46 50 54 62 62 62 57 59 59 60 63 71 73 71 69 67 64 64 60 58 58 60
34 44 41 42 46 43 40 38 39 53 54 52 55 53 50 44 43 42 41 44 51 53 51 53 56 64 67 61 60 62 61 74 73 69 72 70 68 66 63 60 60 62 57 56
40 42 42 42 40 40 40 39 46 56 59 58 58 54 50 47 46 45 46 48 47 52 54 56 62 64 67 64 63 67 72 78 74 70 70 67 68 67 64 63 64 63 66 65
28 31 34 39 44 48 46 60 65 60 60 60 61 59 56 55 55 55 55 54 58 60 57 56 66 69 67 66 66 74 77 78 74 75 71 74 72 68 68 67 65 64 64 72
28 30 35 37 40 39 48 64 64 62 63 67 73 74 70 68 59 62 60 75 78 75 72 69 78 71 69 72 74 78 78 76 74 73 74 82 80 74 77 76 76 71 65 69
35 32 36 36 37 51 63 61 62 68 68 76 79 78 77 76 75 76 74 75 70 70 77 77 72 75 83 85 83 84 82 85 82 85 87 83 86 88 84 82 79 78 77 73
41 36 36 39 46 62 68 63 76 73 75 78 77 76 76 80 78 76 79 80 100 82 78 78 77 83 79 83 80 90 91 95 94 94 92 90 90 86 87 85 84 83 79 76
45 45 46 47 57 63 64 66 66 73 72 79 77 77 79 79 79 77 82 79 87 78 79 75 78 79 78 83 80 90 90 89 91 90 90 89 88 90 89 89 88 87 80 78
47 46 46 54 58 57 64 71 69 73 79 79 79 74 69 70 68 67 76 82 80 79 73 77 81 85 89 84 91 93 90 90 91 90 88 89 89 88 88 89 88 86 84 79
53 51 55 65 71 73 77 71 69 67 71 67 71 75 64 72 72 68 77 80 80 84 84 89 91 90 81 92 91 92 90 90 89 89 85 86 90 90 88 90 89 87 84 79
66 74 76 84 79 74 70 72 68 68 68 67 68 64 64 62 68 84 81 82 83 76 86 90 89 85 91 94 92 90 90 89 90 91 88 89 89 90 89 89 89 88 86 80
72 70 72 77 85 77 70 66 72 72 70 78 77 78 80 77 78 77 78 80 75 81 89 93 90 89 93 90 90 89 88 85 89 87 88 86 87 87 90 89 89 88 86 83
78 83 76 84 89 80 72 72 78 78 76 77 81 82 84 84 81 80 83 82 84 87 91 92 90 87 88 90 88 87 86 87 87 88 88 88 88 90 91 90 89 88 88 86

GFSNGP_sfc_rhum_279.txt.gz
RH
36 27 21 22 20 15 17 17 27 21 16 12 11 13 13 12 16 22 27 29 28 29 30 28 30 30 30 31 31 30 31 32 40 41 41 43 45 45 45 44 41 41 44 44
53 36 34 34 26 20 15 14 15 15 18 12 10 9 12 14 20 23 26 29 28 28 28 28 29 29 30 31 32 31 32 33 37 40 40 45 47 49 49 48 44 44 43 44
66 41 37 54 32 23 18 14 15 20 16 12 14 13 18 20 24 25 28 30 28 28 29 29 29 30 33 33 32 33 33 34 38 39 42 46 45 46 48 50 49 48 47 46
56 49 92 42 22 17 18 16 14 14 13 12 12 12 16 19 25 27 29 30 28 27 29 29 30 29 33 32 34 36 34 35 37 39 41 43 44 45 50 50 48 48 48 47
72 50 42 30 22 20 19 18 14 15 13 11 11 12 18 16 22 27 30 32 31 30 31 30 30 30 32 34 33 34 35 35 35 38 41 41 43 47 46 47 47 46 44 46
57 63 64 33 21 17 22 32 29 30 24 13 12 22 15 15 19 26 29 32 36 32 31 31 31 32 36 36 36 35 35 35 34 38 38 40 42 45 45 44 42 36 41 48
56 67 39 20 16 17 50 52 38 37 35 35 23 15 15 19 19 31 33 35 35 34 34 33 32 34 38 37 38 35 35 34 34 35 38 38 43 44 43 40 39 42 42 48
48 59 62 17 21 33 60 41 34 38 37 40 36 30 27 17 19 27 32 32 31 34 34 34 33 34 36 38 37 34 35 34 35 36 32 35 43 43 40 42 48 47 48 50
90 69 30 43 53 40 36 36 33 32 32 36 39 35 29 24 20 25 28 29 30 32 34 33 33 34 40 41 35 37 36 34 36 35 33 37 42 44 42 45 47 47 45 51
42 32 31 34 45 31 30 34 28 25 25 31 39 34 32 28 23 26 25 27 30 32 34 35 34 33 37 35 35 36 37 36 38 39 37 39 36 38 41 45 46 41 42 46
32 28 26 23 23 32 64 28 23 24 23 25 30 29 28 27 28 24 24 25 30 32 33 36 34 32 31 33 34 36 35 36 39 38 40 39 35 40 37 58 54 46 48 47
38 27 28 26 21 20 21 21 21 23 24 22 25 24 27 27 26 25 28 27 30 32 33 35 34 32 32 33 35 36 37 37 40 44 42 38 51 62 85 80 76 79 77 58
28 24 25 25 21 19 20 19 18 21 21 23 24 21 23 27 26 35 27 30 33 33 33 35 34 31 32 37 38 38 37 40 43 45 43 47 50 58 70 79 74 70 70 71
24 23 29 24 24 20 19 18 22 18 20 21 21 20 25 27 26 31 28 31 34 33 32 34 33 33 36 39 36 37 39 51 42 46 46 54 45 53 57 64 60 59 67 59
27 23 24 22 20 19 19 20 22 21 18 18 21 23 26 28 29 34 28 30 34 34 34 36 36 38 40 40 36 39 38 39 45 52 56 54 52 55 55 53 49 47 54 62
27 26 25 27 25 22 21 22 24 23 22 21 24 23 28 25 27 35 30 32 40 40 36 39 38 40 46 40 39 43 44 50 52 52 55 54 56 57 58 54 52 52 45 48
32 34 36 35 31 30 26 22 20 22 29 27 23 27 26 26 32 39 33 34 36 39 40 41 42 42 47 42 43 48 53 54 56 56 56 56 57 57 53 53 56 52 55 57
32 32 33 33 35 35 33 32 31 27 30 29 29 32 36 36 45 48 39 38 42 45 42 40 42 50 47 45 48 56 56 59 62 66 62 64 60 55 55 56 54 59 61 75
47 47 35 32 33 34 33 31 29 30 37 35 41 60 64 68 69 67 61 80 98 59 56 46 66 57 48 52 57 63 61 62 64 64 66 68 66 59 63 66 69 72 68 66
94 85 73 36 35 38 35 33 32 33 34 44 63 70 92 100 100 100 83 79 62 64 55 59 60 58 54 64 70 68 67 67 66 69 77 73 82 90 82 74 80 92 94 80
82 81 91 59 44 48 47 43 46 46 44 41 60 76 86 100 100 100 99 80 96 64 58 72 63 62 59 68 68 73 72 76 81 86 93 98 100 92 93 93 95 99 100 95
73 90 90 54 44 41 46 42 36 46 48 50 70 87 100 97 99 98 100 73 79 78 74 69 65 64 64 73 69 75 75 76 85 88 97 100 100 100 100 100 100 100 100 100
88 89 67 49 42 36 34 37 43 40 51 56 73 92 89 74 75 76 78 71 73 78 72 68 70 73 75 71 80 84 82 90 94 94 100 100 100 100 100 99 100 99 100 95
94 75 43 37 32 33 35 34 34 34 44 41 54 87 67 75 76 71 69 78 78 90 74 75 82 77 71 84 88 94 93 98 97 100 94 95 100 100 100 100 98 98 95 88
93 51 29 30 31 32 31 30 32 34 34 36 37 55 63 58 77 71 72 77 86 78 73 86 81 76 97 100 100 100 100 99 100 99 98 100 100 100 100 98 97 97 94 88
96 42 30 29 31 30 32 32 36 37 39 47 55 69 79 70 72 70 72 78 75 73 89 98 93 95 100 97 100 100 97 90 95 96 97 98 99 97 98 95 97 94 93 88
85 93 46 34 35 36 35 34 48 50 54 60 66 78 78 75 76 74 80 80 76 90 96 97 92 96 95 100 96 91 90 90 92 93 99 100 98 100 98 98 98 95 91 87

GFSNGP_sfc_rhum_285.txt.gz
RH
50 43 41 42 41 42 46 42 58 49 43 32 24 19 15 15 17 31 36 35 35 38 42 45 46 46 44 50 51 52 56 60 70 74 71 71 72 69 71 68 64 64 63 64
64 46 41 41 35 32 36 38 36 34 38 27 24 20 21 17 35 35 43 43 39 33 37 40 44 46 43 49 51 52 56 60 65 67 68 71 74 74 72 70 67 63 60 61
66 42 44 60 43 33 31 34 36 43 34 34 43 42 38 26 29 34 34 36 34 31 34 37 41 43 46 48 49 52 56 58 64 64 66 70 68 70 70 71 71 72 67 67
65 51 92 33 26 24 27 27 27 41 47 48 48 47 40 40 41 43 36 36 34 37 33 35 40 42 45 46 49 52 55 56 61 63 64 67 67 68 75 76 73 73 72 69
88 61 43 35 27 29 33 34 27 50 40 37 36 47 48 39 36 39 38 39 36 33 33 35 41 42 44 47 47 50 52 55 58 62 64 66 68 72 73 74 74 76 71 71
80 79 79 42 26 22 25 40 52 50 52 47 39 60 51 34 33 37 56 41 43 38 37 38 41 41 44 47 47 48 51 54 55 61 62 66 69 75 70 71 65 63 72 78
77 79 58 32 27 36 52 98 96 59 53 55 62 54 39 36 35 32 44 52 45 42 41 46 39 41 45 46 47 45 50 53 56 58 62 64 70 70 69 67 64 73 79 82
63 84 83 58 58 83 94 94 77 82 58 45 49 52 55 44 38 30 35 55 49 53 45 40 39 41 44 45 43 44 50 52 56 59 53 61 68 72 68 68 72 74 76 89
80 84 50 32 56 56 85 56 53 66 63 47 48 44 41 59 46 35 29 34 55 42 45 40 38 40 44 44 42 46 50 51 55 56 53 62 67 68 71 67 72 76 76 83
50 37 35 31 32 50 38 32 39 46 54 34 32 42 41 42 60 44 26 24 36 60 45 42 39 39 41 41 42 47 49 51 54 55 57 62 59 61 66 68 72 72 76 86
51 40 37 33 30 30 29 26 25 23 26 27 27 27 44 48 57 54 31 24 25 42 51 42 39 40 41 40 41 45 46 50 53 54 62 63 60 67 62 72 65 74 76 78
66 44 44 38 32 29 30 28 26 27 28 26 26 28 35 57 59 65 44 31 25 33 40 42 39 41 42 40 42 45 47 50 54 59 62 62 79 91 88 85 81 79 80 76
47 38 37 35 31 29 30 28 26 26 25 27 26 25 26 52 54 69 50 36 29 32 34 44 40 43 43 43 45 46 48 50 54 60 60 78 79 81 89 89 86 83 83 84
42 40 45 39 39 32 30 30 30 26 25 25 24 23 24 36 46 59 56 37 28 26 32 44 41 45 44 46 44 46 48 58 53 61 65 75 72 78 79 80 84 87 82 79
42 39 38 34 31 30 31 33 33 32 28 28 26 27 26 25 29 53 58 45 31 29 38 51 45 48 48 48 45 48 50 52 56 64 74 72 75 78 78 78 78 83 83 81
38 39 38 42 41 35 33 34 35 36 36 34 34 32 28 25 25 29 53 52 42 37 45 60 49 50 53 49 48 51 52 56 59 64 76 77 79 79 79 77 79 80 76 74
47 47 43 43 42 42 40 38 39 43 48 48 45 37 31 28 28 27 43 53 44 38 59 62 59 50 53 50 50 55 61 64 62 70 73 76 77 77 76 74 78 79 79 70
36 36 38 43 47 53 52 53 55 57 59 58 55 52 48 38 34 32 31 56 51 53 60 53 60 57 53 52 53 60 66 68 68 75 76 80 78 75 75 74 72 73 78 75
60 59 56 49 51 55 60 63 60 55 58 62 68 71 64 53 45 44 43 62 69 77 57 60 73 66 55 57 58 68 67 68 70 76 77 80 82 77 76 74 73 71 75 72
65 64 63 55 51 54 50 50 54 61 64 67 74 76 77 68 55 57 66 69 62 61 60 73 70 71 64 66 70 72 70 69 73 77 81 84 86 85 80 75 74 82 81 74
53 50 47 50 53 56 60 58 60 72 75 72 75 79 80 73 59 59 61 56 47 51 57 66 79 79 67 70 72 74 72 74 78 81 88 89 91 84 83 80 85 82 82 78
42 45 50 55 59 61 64 67 67 69 72 74 77 76 80 75 59 58 58 47 50 69 78 79 81 78 71 73 74 76 73 75 79 82 87 91 92 87 84 85 88 85 82 82
44 53 66 81 91 92 91 90 90 91 94 84 87 84 80 73 56 61 61 68 63 79 89 91 84 82 78 73 79 78 76 80 82 84 87 91 91 86 84 86 87 85 84 83
62 60 73 87 93 95 96 88 85 90 89 82 87 89 78 65 65 63 64 80 84 85 78 90 87 82 74 77 82 83 82 84 85 87 85 86 92 86 85 88 87 83 81 84
56 80 92 94 95 94 85 92 86 79 89 85 83 80 58 47 57 61 74 77 88 88 84 91 84 80 80 88 88 88 89 87 89 90 89 92 92 89 88 88 87 85 85 84
73 87 92 87 93 95 89 82 85 74 68 71 68 66 62 56 59 61 62 66 80 88 91 93 89 84 89 89 89 88 88 88 90 90 91 94 97 90 88 87 88 87 86 85
80 85 84 87 95 95 93 59 71 75 76 74 70 77 69 68 72 72 83 84 87 90 94 94 87 82 90 90 88 88 89 91 90 93 95 98 97 89 88 87 88 87 87 87

GFSNGP_sfc_rhum_291.txt.gz
RH
47 40 41 54 56 48 46 46 57 56 47 38 56 60 48 39 37 38 40 40 46 58 68 70 71 68 66 72 73 70 70 70 76 78 78 80 82 78 79 78 78 78 81 83
40 36 42 50 47 49 45 40 38 34 33 49 45 44 44 45 44 43 42 41 40 46 57 63 64 64 66 71 72 67 66 70 77 78 78 80 82 80 79 82 79 78 79 81
54 42 37 53 40 34 34 31 36 40 65 54 50 46 54 56 55 53 48 42 44 42 47 58 60 60 65 66 65 62 66 71 76 75 76 80 78 76 81 80 78 77 79 80
64 47 70 35 31 32 37 80 81 65 53 50 45 44 40 38 46 52 56 48 44 42 40 45 58 58 60 59 63 64 68 74 72 74 76 77 78 76 79 78 75 74 75 80
92 65 44 41 70 71 63 80 75 74 72 63 46 50 56 34 33 44 56 57 52 44 44 48 51 53 56 60 61 62 64 69 70 72 75 76 78 80 77 75 75 70 67 79
83 90 87 74 49 41 57 80 72 79 71 79 57 64 54 40 38 44 49 50 54 52 46 56 63 49 57 61 64 69 69 71 68 71 73 74 76 77 77 72 68 60 65 73
76 93 67 57 49 52 72 92 87 72 60 71 78 59 49 47 33 49 47 48 46 54 53 47 58 54 60 60 64 63 64 64 68 70 73 71 77 75 78 71 71 68 61 76
81 83 83 44 44 66 77 96 74 56 64 56 58 50 39 32 33 45 55 50 46 50 58 45 50 66 60 59 58 59 63 67 71 71 67 70 75 77 77 74 77 72 72 78
82 74 57 42 59 48 52 43 46 54 49 41 42 39 36 30 30 41 58 57 47 46 52 52 42 44 72 71 58 68 69 67 69 69 66 71 74 79 80 78 81 81 68 72
51 47 44 41 37 32 30 33 40 36 35 38 40 43 37 29 28 35 51 59 57 53 49 55 53 46 48 70 63 62 64 68 68 72 73 73 69 71 76 80 81 80 78 74
48 43 42 39 38 41 39 42 39 34 38 40 40 39 36 30 30 33 45 55 60 58 55 55 60 61 50 58 65 64 65 67 69 70 76 74 70 70 70 70 74 79 79 76
49 35 40 40 40 38 41 40 38 38 41 37 36 36 35 35 35 31 35 37 65 68 66 60 57 61 61 47 60 63 64 69 71 71 75 73 76 89 85 77 81 81 81 77
44 39 44 44 40 40 43 42 40 41 39 40 39 38 37 41 35 37 31 42 52 65 69 72 62 59 63 56 60 60 62 66 69 71 74 78 80 82 88 95 86 83 84 83
45 47 52 50 51 42 44 44 45 41 41 40 37 40 38 36 35 33 33 32 36 50 70 76 72 70 67 71 59 69 59 70 67 70 73 78 79 79 80 85 91 91 87 81
54 50 48 42 41 43 43 48 50 44 39 41 38 40 39 39 38 38 34 32 34 40 68 75 78 73 71 79 64 59 61 64 69 79 80 79 78 80 80 83 86 88 94 94
49 48 48 54 54 51 50 52 50 49 49 48 48 47 46 42 40 39 42 42 49 46 49 76 78 72 79 82 80 65 67 69 71 74 80 83 82 84 87 85 84 88 89 91
52 54 53 56 56 55 52 48 48 47 49 53 52 48 46 48 50 46 44 48 46 47 46 45 57 71 83 83 90 70 84 83 78 77 84 80 80 82 81 83 86 88 89 89
46 47 48 49 50 50 52 54 56 56 56 52 52 53 55 54 52 49 48 51 56 58 54 52 65 79 83 86 91 81 81 82 79 83 82 84 82 79 82 82 83 85 89 91
56 54 55 52 51 55 56 62 62 59 59 58 62 69 65 63 60 59 60 70 73 69 61 53 62 88 82 86 94 86 82 79 78 85 84 85 85 82 84 83 83 84 89 91
74 62 58 56 62 64 56 55 57 58 58 60 66 70 70 69 71 74 72 73 66 62 56 60 70 89 88 90 93 85 88 80 80 85 87 87 88 89 86 83 84 87 90 90
62 66 61 58 54 56 60 60 62 62 58 57 62 67 68 67 68 71 75 74 64 61 65 66 69 82 89 93 93 94 91 83 86 90 92 92 91 89 90 87 87 88 91 90
52 55 55 56 58 58 58 55 53 59 64 77 88 86 86 84 79 77 75 74 69 71 72 74 74 72 82 93 95 93 87 87 86 87 90 91 91 91 90 89 90 91 92 92
51 51 52 56 59 62 57 56 55 57 84 92 95 92 89 86 84 87 86 73 76 72 72 77 78 78 85 91 93 89 88 84 86 89 90 91 90 91 90 90 90 91 93 95
52 52 56 56 61 63 64 55 51 51 55 64 84 88 92 90 87 84 80 73 74 76 76 76 81 82 85 86 84 88 90 87 87 91 89 88 93 92 90 90 91 92 94 95
55 60 64 66 64 59 57 56 58 63 73 79 77 74 76 93 96 84 83 82 76 77 78 78 80 80 84 85 88 93 93 90 90 93 91 93 92 93 92 92 92 94 96 96
61 65 61 60 61 62 65 68 83 87 86 91 87 83 90 86 86 86 85 84 79 79 77 84 82 79 79 86 93 92 90 87 89 90 92 91 92 91 93 93 95 95 96 97
59 64 63 65 64 67 74 89 96 93 88 92 96 96 96 92 98 98 98 97 85 81 81 82 80 77 82 88 92 90 88 88 89 91 94 94 93 93 94 95 96 96 97 97